Location: Colonia Mina de C?rbuni
(46.1667°N, 22.7167°E)
Time: 05:29:38
(UTC+00:00)

Vanguard 1 Rocket - Pass Details

Date: 13 April 2024
Orbit: 650 x 4220 km, 34.3° (Epoch: 26 May)

Event Time Altitude Azimuth Distance (km) Brightness Sun altitude
Rises 20:04:20 0° 247° (WSW) 3,908 10.9 -25.6°
Reaches altitude 10° 20:06:38 10° 240° (WSW) 3,231 10.3 -25.9°
Maximum altitude 20:14:27 45° 170° (S) 2,399 9.0 -26.7°
Enters shadow 20:16:23 42° 148° (SSE) 2,674 9.2 -26.9°
